Weather History for KSTJ - July, 2013

Change the Weather History Date:

Thursday, July 18, 2013

  Actual Average Record
Temperature  
Mean Temperature 83 °F 77 °F  
Max Temperature 95 °F 87 °F 106 °F (1934)
Min Temperature 70 °F 67 °F 53 °F (2009)
Degree Days  
Heating Degree Days 0 0  
Month to date heating degree days 0 0  
Since 1 June heating degree days 15 8  
Since 1 July heating degree days 0 0  
Cooling Degree Days 18 12  
Month to date cooling degree days 232 214  
Year to date cooling degree days 633 594  
Since 1 June cooling degree days 507 481  
Growing Degree Days 32 (Base 50)    
Moisture  
Dew Point 68 °F    
Average Humidity 65    
Maximum Humidity 93    
Minimum Humidity 36    
Precipitation  
Precipitation 0.00 in 0.18 in 1.83 in (1971)
Month to date precipitation 0.07 2.89  
Year to date precipitation 16.21 20.02  
Sea Level Pressure  
Sea Level Pressure 30.07 in    
Wind  
Wind Speed 6 mph (SSW)    
Max Wind Speed 16 mph    
Max Gust Speed 22 mph    
Visibility 10 miles    
Events      
T = Trace of Precipitation, MM = Missing Value Source: NWS Daily Summary

Daily Weather History Graph

Daily Weather History Graph

Search for Another Location

Airport or City:

Trip Planner

Search our weather history database for the weather conditions in past years. The results will help you decide how hot, cold, wet, or windy it might be!

Date:

Astronomy

Jul. 18, 2013 Rise Set
Actual Time 6:06 AM CDT 8:44 PM CDT
Civil Twilight 5:35 AM CDT 9:16 PM CDT
Nautical Twilight 4:55 AM CDT 9:55 PM CDT
Astronomical Twilight 4:11 AM CDT 10:39 PM CDT
Moon 4:42 PM CDT (7/18) 1:57 AM CDT (7/18)
Length of Visible Light 15h 40m
Length of Day
14h 38m
Waxing Gibbous, 77% of the Moon is Illuminated
Jul 18
Waxing Gibbous
Jul 22
Full
Jul 29
Last Quarter
Aug 6
New
Aug 14
First Quarter

Hourly Weather History & Observations

Time (CDT) Temp. Heat Index Dew Point Humidity Pressure Visibility Wind Dir Wind Speed Gust Speed Precip Events Conditions
12:53 AM 78.1 °F - 69.1 °F 74% 30.18 in 10.0 mi SSW 4.6 mph - N/A   Clear
1:53 AM 77.0 °F - 69.1 °F 76% 30.18 in 10.0 mi SW 3.5 mph - N/A   Clear
2:53 AM 77.0 °F - 70.0 °F 79% 30.17 in 10.0 mi SSW 3.5 mph - N/A   Clear
3:53 AM 75.9 °F - 69.1 °F 79% 30.17 in 10.0 mi Calm Calm - N/A   Clear
4:53 AM 71.1 °F - 66.9 °F 87% 30.15 in 10.0 mi Calm Calm - N/A   Clear
5:53 AM 70.0 °F - 66.0 °F 87% 30.15 in 10.0 mi Calm Calm - N/A   Clear
6:53 AM 72.0 °F - 69.1 °F 91% 30.15 in 10.0 mi Calm Calm - N/A   Clear
7:53 AM 77.0 °F - 71.1 °F 82% 30.15 in 10.0 mi Calm Calm - N/A   Clear
8:53 AM 81.0 °F 84.9 °F 71.1 °F 72% 30.15 in 10.0 mi SSW 4.6 mph - N/A   Clear
9:53 AM 84.0 °F 89.6 °F 72.0 °F 67% 30.14 in 10.0 mi SSW 5.8 mph - N/A   Clear
10:53 AM 88.0 °F 92.9 °F 70.0 °F 55% 30.12 in 10.0 mi SW 8.1 mph - N/A   Clear
11:53 AM 90.0 °F 94.5 °F 69.1 °F 50% 30.11 in 10.0 mi South 12.7 mph 17.3 mph N/A   Partly Cloudy
12:53 PM 91.9 °F 95.4 °F 66.9 °F 44% 30.09 in 10.0 mi SSW 16.1 mph - N/A   Clear
1:53 PM 93.0 °F 95.9 °F 66.0 °F 41% 30.07 in 10.0 mi SW 11.5 mph 19.6 mph N/A   Partly Cloudy
2:53 PM 95.0 °F 97.9 °F 66.0 °F 38% 30.04 in 10.0 mi SSW 10.4 mph 20.7 mph N/A   Clear
3:53 PM 95.0 °F 97.4 °F 64.9 °F 37% 30.01 in 10.0 mi SSW 9.2 mph 17.3 mph N/A   Clear
4:53 PM 93.9 °F 96.1 °F 64.9 °F 38% 30.00 in 10.0 mi SSW 12.7 mph - N/A   Clear
5:53 PM 93.9 °F 96.1 °F 64.9 °F 38% 29.98 in 10.0 mi SSW 10.4 mph - N/A   Clear
6:53 PM 93.0 °F 95.9 °F 66.0 °F 41% 29.96 in 10.0 mi SSW 9.2 mph - N/A   Clear
7:53 PM 89.1 °F 92.9 °F 68.0 °F 50% 29.96 in 10.0 mi South 4.6 mph - N/A   Clear
8:53 PM 82.9 °F 85.8 °F 68.0 °F 60% 29.96 in 10.0 mi South 4.6 mph - N/A   Clear
9:53 PM 82.9 °F 86.5 °F 69.1 °F 63% 29.97 in 10.0 mi SSW 4.6 mph - N/A   Scattered Clouds
10:53 PM 81.0 °F 84.1 °F 69.1 °F 67% 29.97 in 10.0 mi SSW 4.6 mph - N/A   Clear
11:53 PM 78.1 °F - 68.0 °F 71% 29.96 in 10.0 mi SSW 4.6 mph - N/A   Clear